[[{"header":{"parameterUnit":"m.s-1","parameterCategory":1,"la1":30.2991,"la2":30.254,"lo1":-89.0895,"lo2":-89.0444,"dy":0.0017,"dx":0.0017,"nx":28,"ny":28,"refTime":"2023-10-05T03:00:00:Z","depth":0,"parameterNumber":2,"parameterNumberName":"U-component_of_WINDS"},"data":[0,0,0,0,0,0,0,0,0,0,0,0,0,0,0,0,0,0,0,0,0,0,0,0,0,0,0,0,0,0,0,0,0,0,0,0,0,0,0,0,0,0,0,0,0,0,0,0,0,0,0,0,0,0,0,0,0,0,-4.78,-4.78,0,-4.7794,-4.7794,-4.7794,-4.7664,-4.7661,-4.7657,-4.7654,-4.7648,-4.765,-4.7653,0,0,0,0,0,0,0,0,0,0,0,0,0,-4.7699,-4.7702,-4.78,-4.78,-4.78,-4.7794,-4.7794,-4.7794,-4.7665,-4.7661,-4.7657,-4.7653,-4.7647,-4.765,-4.7654,0,0,0,0,0,0,0,0,0,0,0,0,0,-4.7723,-4.7703,-4.78,-4.7735,-4.7729,-4.7794,-4.7794,-4.7794,-4.7665,-4.766,-4.7655,-4.7651,-4.7645,-4.765,-4.7654,-4.7781,0,0,-4.7667,-4.7669,0,0,0,0,0,0,0,0,-4.7722,-4.7727,-4.7744,-4.7739,-4.7733,-4.7725,-4.7756,-4.7789,-4.7667,-4.769,-4.7654,-4.7648,-4.7677,-4.7679,-4.7688,-4.7781,-4.778,-4.7668,-4.767,-4.7672,-4.7674,0,0,0,0,0,0,0,-4.7721,-4.7727,-4.7797,-4.7745,-4.7738,-4.7706,-4.7703,-4.7762,-4.7711,-4.7687,-4.7678,-4.7679,-4.7673,-4.7685,-4.7687,-4.778,-4.7668,-4.7672,-4.7674,-4.7676,-4.7976,-4.7981,0,0,0,0,0,0,-4.7728,-4.7726,-4.7798,-4.7797,-4.7715,-4.7712,-4.7709,-4.7732,-4.771,-4.7702,-4.7683,-4.7673,-4.768,-4.7682,-4.7687,-4.7832,-4.7672,-4.7676,-4.7679,-4.7971,-4.7977,-4.7983,0,0,0,0,0,0,-4.7726,-4.7736,-4.7798,-4.7759,-4.7765,-4.7719,-4.7746,-4.7735,-4.7746,-4.7707,-4.7698,-4.7704,-4.7676,-4.768,-4.7758,-4.7831,-4.7678,-4.7682,-4.7964,-4.7973,-4.798,-4.8127,0,0,0,0,0,0,-4.7724,-4.7736,-4.7783,-4.7761,-4.7767,-4.787,-4.775,-4.7738,-4.7754,-4.774,-4.7724,-4.7717,-4.7672,-4.7753,-4.7763,-4.7834,-4.7686,-4.7958,-4.7968,-4.7978,-4.8115,-4.8139,-4.8159,0,0,0,0,0,-4.7721,-4.7825,-4.7786,-4.7796,-4.7826,-4.7875,-4.7878,-4.7824,-4.776,-4.7808,-4.7783,-4.7717,-4.7822,-4.7762,-4.7772,-4.7846,-4.7953,-4.7965,-4.7977,-4.8105,-4.8134,-4.8158,0,0,0,0,0,0,-4.7856,-4.7821,-4.7778,-4.7878,-4.788,-4.7853,-4.791,-4.7857,-4.7877,-4.7863,-4.7796,-4.7794,-4.7882,-4.7872,-4.7805,-4.7967,-4.7876,-4.7891,-4.797,-4.7997,-4.8019,-4.8018,-4.7689,0,0,0,0,0,-4.7898,-4.794,-4.7907,-4.7999,-4.8002,-4.7957,-4.7976,-4.7935,-4.7934,-4.7935,-4.7915,-4.7918,-4.7951,-4.7974,-4.8002,-4.8114,-4.8108,-4.817,-4.8192,-4.821,-4.8223,-4.8281,-4.8307,-4.8022,-4.8022,-4.8022,0,0,-4.7984,-4.797,-4.8001,-4.8026,-4.8022,-4.8068,-4.7958,-4.8011,-4.8044,-4.7942,-4.8014,-4.8001,-4.7999,-4.8095,-4.8136,-4.8089,-4.8301,-4.8226,-4.824,-4.8243,-4.8296,-4.8323,-4.8347,-4.8031,-4.8029,-4.8028,0,0,-4.8163,-4.8158,-4.8232,-4.8232,-4.8229,-4.8199,-4.8217,-4.8198,-4.8185,-4.8257,-4.8182,-4.8221,-4.8279,-4.828,-4.8289,-4.8472,-4.8411,-4.8483,-4.8596,-4.8653,-4.8675,-4.8695,-4.8758,-4.8782,-4.8496,-4.8497,-4.8497,0,-4.8269,-4.8335,-4.8278,-4.8335,-4.8348,-4.826,-4.8335,-4.8338,-4.8345,-4.8356,-4.8304,-4.8376,-4.8368,-4.8462,-4.8507,-4.8518,-4.8536,-4.8483,-4.8677,-4.8696,-4.8713,-4.8773,-4.8797,-4.8505,-4.8504,-4.8503,-4.8502,0,-4.8465,-4.8512,-4.8573,-4.8582,-4.8603,-4.8669,-4.8622,-4.865,-4.8608,-4.8583,-4.8657,-4.8645,-4.867,-4.869,-4.8649,-4.8779,-4.8749,-4.8689,-4.8595,-4.875,-4.8805,-4.8827,-4.8517,-4.8514,-4.8512,-4.851,0,0,-4.8726,-4.8705,-4.8728,-4.8731,-4.8722,-4.8757,-4.882,-4.8844,-4.8869,-4.8878,-4.8927,-4.898,-4.8924,-4.8934,-4.8893,-4.8944,-4.9088,-4.8877,-4.8875,-4.8914,-4.9228,-4.9272,-4.9299,-4.9049,-4.9053,-4.9057,-4.9227,0,-4.8898,-4.9003,-4.8954,-4.9065,-4.9107,-4.9025,-4.908,-4.9081,-4.906,-4.9093,-4.907,-4.9108,-4.9032,-4.9037,-4.9084,-4.906,-4.9149,-4.9048,-4.9094,-4.9096,-4.9094,-4.9328,-4.9375,-4.9536,-4.9249,-4.9252,-4.9255,0,-4.9111,-4.9129,-4.9244,-4.9228,-4.9244,-4.9294,-4.9312,-4.9345,-4.9345,-4.9326,-4.9338,-4.9286,-4.9347,-4.9257,-4.9338,-4.927,-4.9287,-4.9279,-4.9284,-4.9284,-4.9183,-4.9332,-4.9586,-4.961,-4.9289,-4.9286,-4.9283,0,-4.9287,-4.934,-4.9416,-4.9421,-4.9405,-4.9442,-4.9437,-4.9432,-4.945,-4.9467,-4.9477,-4.9501,-4.9514,-4.9534,-4.9489,-4.9428,-4.9577,-4.9483,-4.9562,-4.9564,-4.9595,-4.9593,-4.9853,-4.9611,-4.961,-4.961,-4.9609,0,-4.9482,-4.9555,-4.9495,-4.9541,-4.962,-4.9565,-4.9645,-4.9631,-4.9628,-4.967,-4.9602,-4.9643,-4.9583,-4.9618,-4.9585,-4.9657,-4.9664,-4.965,-4.9639,-4.9654,-4.9656,-4.9662,-4.9649,-4.9616,-4.9615,-4.9613,-4.9612,0,-4.9691,-4.9654,-4.973,-4.971,-4.9706,-4.9766,-4.9747,-4.9789,-4.9765,-4.9819,-4.9828,-4.979,-4.9828,-4.9787,-4.9822,-4.9799,-4.9896,-4.9871,-4.9896,-4.9888,-4.9968,-4.9961,-5.0239,-5.0272,-5.0011,-5.0014,-5.0016,0,-4.9816,-4.9871,-4.9856,-4.988,-4.9879,-4.9918,-4.9935,-4.9884,-4.9905,-4.991,-4.9951,-4.9984,-5.0006,-5.0071,-5.0046,-5.0073,-5.0046,-5.0142,-5.0049,-5.0062,-5.0044,-5.0041,-5.0045,-5.0159,-5.0163,-5.0165,-5.0167,0,-5.0042,-5.0021,-5.005,-5.0073,-5.0097,-5.0112,-5.0122,-5.0146,-5.0092,-5.012,-5.0158,-5.0176,-5.0212,-5.0245,-5.0264,-5.0259,-5.0204,-5.0197,-5.0216,-5.0231,-5.0242,-5.0235,-4.9945,-5.019,-5.0188,-5.0186,-5.0185,-5.0184,-5.0211,-5.0256,-5.0252,-5.0287,-5.029,-5.0301,-5.0339,-5.032,-5.0351,-5.0376,-5.0344,-5.0391,-5.039,-5.0411,-5.0412,-5.0448,-5.0407,-5.0436,-5.0442,-5.045,-5.0461,-5.024,-5.0452,-5.0451,-5.0451,-5.045,-5.0449,0,-5.0432,-5.0426,-5.0459,-5.0475,-5.0503,-5.0451,-5.046,-5.0486,-5.0528,-5.0532,-5.0556,-5.06,-5.0632,-5.0611,-5.0637,-5.067,-5.0646,-5.0679,-5.0675,-5.0674,-5.0497,-5.0476,-5.0698,-5.0698,-5.0698,-5.0698,-5.0698,-5.0698,-5.0549,-5.0621,-5.0601,-5.0673,-5.0667,-5.0713,-5.0722,-5.0732,-5.0735,-5.0787,-5.0814,-5.08,-5.0794,-5.082,-5.0847,-5.084,-5.0852,-5.0894,-5.0877,-5.0711,-5.0687,-5.0663,-5.0644,-5.0897,-5.0897,-5.1051,-5.1053,-5.1054]},{"header":{"parameterUnit":"m.s-1","parameterCategory":1,"la1":30.2991,"la2":30.254,"lo1":-89.0895,"lo2":-89.0444,"dy":0.0017,"dx":0.0017,"nx":28,"ny":28,"refTime":"2023-10-05T03:00:00:Z","depth":0,"parameterNumber":3,"parameterNumberName":"V-component_of_WINDS"},"data":[0,0,0,0,0,0,0,0,0,0,0,0,0,0,0,0,0,0,0,0,0,0,0,0,0,0,0,0,0,0,0,0,0,0,0,0,0,0,0,0,0,0,0,0,0,0,0,0,0,0,0,0,0,0,0,0,0,0,2.2467,2.2467,0,2.2523,2.2524,2.2524,2.2572,2.2572,2.2573,2.2573,2.2626,2.2627,2.2627,0,0,0,0,0,0,0,0,0,0,0,0,0,2.2396,2.2397,2.2467,2.2467,2.2468,2.2523,2.2524,2.2524,2.2571,2.2572,2.2573,2.2573,2.2625,2.2626,2.2627,0,0,0,0,0,0,0,0,0,0,0,0,0,2.2437,2.2398,2.2467,2.2498,2.2502,2.2523,2.2524,2.2525,2.2571,2.2572,2.2573,2.2574,2.2625,2.2626,2.2628,2.262,0,0,2.2632,2.2632,0,0,0,0,0,0,0,0,2.2434,2.2439,2.2493,2.2496,2.25,2.2541,2.2518,2.2556,2.2571,2.2545,2.2573,2.2574,2.2597,2.26,2.2609,2.2623,2.2625,2.2632,2.2633,2.2633,2.2634,0,0,0,0,0,0,0,2.2432,2.2437,2.2489,2.2494,2.2498,2.2508,2.2515,2.2526,2.2565,2.2547,2.2551,2.2557,2.2599,2.2607,2.261,2.2626,2.2632,2.2633,2.2634,2.2634,2.2636,2.2635,0,0,0,0,0,0,2.2425,2.2435,2.2487,2.249,2.2469,2.2509,2.2517,2.2527,2.2565,2.2572,2.2556,2.2559,2.2605,2.2609,2.2613,2.2606,2.2633,2.2635,2.2635,2.2637,2.2636,2.2635,0,0,0,0,0,0,2.2423,2.2429,2.2485,2.2464,2.2472,2.251,2.2521,2.2528,2.2537,2.2572,2.2579,2.2558,2.2606,2.2611,2.2618,2.2609,2.2635,2.2636,2.2638,2.2637,2.2636,2.2593,0,0,0,0,0,0,2.2421,2.2428,2.2426,2.2463,2.2473,2.249,2.252,2.2528,2.254,2.2544,2.2576,2.2582,2.2607,2.2616,2.262,2.2611,2.2637,2.2639,2.2637,2.2636,2.2596,2.2591,2.2587,0,0,0,0,0,2.2418,2.2411,2.2426,2.2432,2.2471,2.249,2.2495,2.2525,2.2539,2.2537,2.256,2.2581,2.261,2.2616,2.2621,2.2612,2.264,2.2638,2.2636,2.2598,2.2592,2.2587,0,0,0,0,0,0,2.2369,2.2416,2.2433,2.2438,2.246,2.2498,2.2496,2.2517,2.2534,2.2537,2.2572,2.2579,2.2583,2.2599,2.2605,2.2607,2.2627,2.2626,2.2597,2.2591,2.2587,2.2582,2.2639,0,0,0,0,0,2.236,2.2372,2.2412,2.2412,2.2423,2.2458,2.2467,2.2488,2.2511,2.252,2.2544,2.2564,2.2578,2.2586,2.26,2.2599,2.2606,2.2595,2.2591,2.2587,2.2585,2.2586,2.2581,2.2629,2.263,2.263,0,0,2.2339,2.2366,2.2371,2.2404,2.2423,2.2434,2.2465,2.2475,2.2483,2.2521,2.253,2.2548,2.2573,2.2576,2.2579,2.259,2.2574,2.2585,2.2582,2.2582,2.2583,2.2579,2.2575,2.2628,2.2629,2.2629,0,0,2.2307,2.2329,2.2332,2.2351,2.2381,2.2405,2.2405,2.2441,2.2454,2.2465,2.2494,2.2503,2.2526,2.2543,2.2554,2.253,2.255,2.2534,2.2509,2.2509,2.2506,2.2502,2.2493,2.2489,2.2532,2.2532,2.2532,0,2.2276,2.2296,2.233,2.2339,2.2352,2.239,2.2392,2.2409,2.2441,2.2448,2.2461,2.2491,2.251,2.2518,2.2512,2.252,2.2521,2.2529,2.2504,2.2501,2.2498,2.249,2.2486,2.253,2.253,2.253,2.253,0,2.2257,2.227,2.2269,2.2301,2.2314,2.2319,2.2354,2.2363,2.2383,2.2405,2.2415,2.244,2.246,2.2464,2.2483,2.2474,2.248,2.2498,2.2518,2.2491,2.2483,2.248,2.2527,2.2527,2.2528,2.2529,0,0,2.2194,2.2247,2.2246,2.2261,2.2297,2.2307,2.2314,2.2336,2.2343,2.2364,2.237,2.2389,2.2406,2.2419,2.2441,2.2441,2.242,2.2459,2.246,2.245,2.2411,2.2397,2.2392,2.2434,2.2434,2.2433,2.2409,0,2.2167,2.2184,2.2216,2.2222,2.2234,2.227,2.2276,2.2298,2.2319,2.2332,2.2354,2.2367,2.2389,2.2397,2.2399,2.2422,2.2412,2.2424,2.2439,2.2439,2.243,2.2389,2.2373,2.2349,2.2406,2.2405,2.2405,0,2.2137,2.2158,2.2166,2.2202,2.2208,2.2214,2.2236,2.2248,2.2274,2.2289,2.2305,2.2329,2.2338,2.2358,2.2369,2.2377,2.2385,2.2397,2.2397,2.2398,2.2419,2.2388,2.2342,2.2337,2.2401,2.2401,2.2402,0,2.2089,2.2119,2.2128,2.214,2.2183,2.2186,2.2203,2.223,2.2242,2.2261,2.2269,2.2289,2.2299,2.2313,2.2342,2.2354,2.235,2.2372,2.2361,2.2361,2.2358,2.2357,2.2311,2.2365,2.2365,2.2365,2.2365,0,2.2055,2.2058,2.2108,2.2113,2.2117,2.2154,2.2157,2.2177,2.2201,2.221,2.2243,2.225,2.2288,2.23,2.2322,2.2328,2.2333,2.2344,2.235,2.2341,2.2339,2.2345,2.2347,2.2364,2.2364,2.2364,2.2364,0,2.2001,2.2035,2.2047,2.2087,2.2098,2.2099,2.2133,2.2139,2.2163,2.2173,2.2178,2.2214,2.223,2.2261,2.2284,2.2299,2.2299,2.231,2.2291,2.2294,2.2281,2.2281,2.2236,2.2232,2.2289,2.2288,2.2288,0,2.1976,2.198,2.2022,2.2031,2.2048,2.2062,2.2075,2.2111,2.2122,2.2153,2.2155,2.2173,2.219,2.2212,2.224,2.2257,2.2268,2.2251,2.2271,2.2262,2.2267,2.2266,2.2266,2.2246,2.2245,2.2245,2.2244,0,2.1929,2.1946,2.1963,2.1987,2.2001,2.2021,2.2042,2.2048,2.2089,2.2099,2.2117,2.213,2.2155,2.2172,2.2194,2.2211,2.2234,2.2238,2.2237,2.2226,2.2215,2.222,2.2277,2.2239,2.2239,2.224,2.224,2.224,2.1888,2.1893,2.1924,2.1942,2.1963,2.1982,2.199,2.2016,2.2031,2.2056,2.2076,2.2091,2.2117,2.215,2.2165,2.2177,2.2188,2.2186,2.2185,2.2183,2.2179,2.2214,2.2181,2.2181,2.2181,2.2182,2.2182,0,2.1841,2.1863,2.188,2.191,2.1925,2.1948,2.1973,2.1983,2.1997,2.202,2.2036,2.2056,2.2073,2.2103,2.2122,2.2126,2.2137,2.2129,2.2129,2.2132,2.2168,2.2168,2.212,2.212,2.212,2.212,2.212,2.212,2.1819,2.1828,2.1849,2.1869,2.1891,2.1908,2.192,2.1938,2.1957,2.1978,2.1993,2.2013,2.2039,2.2061,2.2077,2.2086,2.2091,2.208,2.2091,2.2124,2.213,2.2135,2.2134,2.2081,2.2081,2.2054,2.2053,2.2053]}]]